When you browse on this site, cookies collect data to enhance your experience and personalize the content and advertising you see.
Visit our Privacy Policy to learn more. By continuing to use the site, you agree to this use of cookies and data.
  • In Lithuania
  • List of Countries
  • For 7 days
  • Water Temperature
  • Satellite Maps
  • Weather Map
  • Weather Widgets
  • user-avatar
    Login

    Hourly Weather Polunino

    Today, 18 June, Tuesday

    Time Temperature Precipitation Wind Pressure Humidity
    00:00 +16°C° 0 mm 1 mps 741 mmHg 88%
    01:00 +16°C° 0 mm 2 mps 741 mmHg 89%
    02:00 +16°C° 0 mm 2 mps 741 mmHg 89%
    03:00 +16°C° 0 mm 2 mps 741 mmHg 90%
    04:00 +16°C° 0.2 mm 2 mps 741 mmHg 90%
    05:00 +17°C° 0.2 mm 2 mps 741 mmHg 90%
    06:00 +17°C° 0.2 mm 2 mps 741 mmHg 90%
    07:00 +19°C° 1 mm 3 mps 740 mmHg 88%
    08:00 +20°C° 1 mm 3 mps 740 mmHg 86%
    09:00 +21°C° 1 mm 3 mps 740 mmHg 84%
    10:00 +22°C° 1 mm 3 mps 740 mmHg 82%
    11:00 +24°C° 1 mm 3 mps 740 mmHg 80%
    12:00 +24°C° 1 mm 3 mps 740 mmHg 78%
    13:00 +25°C° 0.6 mm 3 mps 740 mmHg 77%
    14:00 +25°C° 0.6 mm 3 mps 740 mmHg 75%
    15:00 +25°C° 0.6 mm 3 mps 739 mmHg 74%
    16:00 +25°C° 0.7 mm 3 mps 739 mmHg 75%
    17:00 +25°C° 0.7 mm 3 mps 739 mmHg 77%
    18:00 +24°C° 0.7 mm 3 mps 739 mmHg 78%
    19:00 +22°C° 0.1 mm 3 mps 739 mmHg 80%
    20:00 +20°C° 0.1 mm 2 mps 740 mmHg 82%
    21:00 +19°C° 0.1 mm 2 mps 740 mmHg 83%
    22:00 +18°C° 0 mm 2 mps 740 mmHg 85%
    23:00 +18°C° 0 mm 3 mps 740 mmHg 87%

    Tomorrow, 19 June, Wednesday

    Time Temperature Precipitation Wind Pressure Humidity
    00:00 +17°C° 0 mm 3 mps 741 mmHg 88%
    01:00 +16°C° 0 mm 3 mps 741 mmHg 89%
    02:00 +16°C° 0 mm 3 mps 741 mmHg 90%
    03:00 +14°C° 0 mm 3 mps 741 mmHg 90%
    04:00 +14°C° 0 mm 3 mps 741 mmHg 89%
    05:00 +16°C° 0 mm 3 mps 742 mmHg 87%
    06:00 +16°C° 0 mm 3 mps 742 mmHg 85%
    07:00 +17°C° 0 mm 3 mps 742 mmHg 81%
    08:00 +19°C° 0 mm 3 mps 742 mmHg 77%
    09:00 +20°C° 0 mm 3 mps 742 mmHg 73%
    10:00 +22°C° 0 mm 3 mps 743 mmHg 68%
    11:00 +24°C° 0 mm 3 mps 743 mmHg 62%
    12:00 +25°C° 0 mm 3 mps 743 mmHg 57%
    13:00 +25°C° 0 mm 3 mps 743 mmHg 57%
    14:00 +25°C° 0 mm 3 mps 743 mmHg 57%
    15:00 +26°C° 0 mm 3 mps 742 mmHg 58%
    16:00 +26°C° 0 mm 3 mps 742 mmHg 61%
    17:00 +25°C° 0 mm 2 mps 742 mmHg 64%
    18:00 +25°C° 0 mm 2 mps 742 mmHg 68%
    19:00 +23°C° 0 mm 1 mps 742 mmHg 72%
    20:00 +22°C° 0 mm 1 mps 742 mmHg 76%
    21:00 +18°C° 0 mm 0 mps 742 mmHg 79%
    22:00 +19°C° 0 mm 1 mps 743 mmHg 80%
    23:00 +19°C° 0 mm 1 mps 743 mmHg 80%

    Day after tomorrow, 20 June, Thursday

    Time Temperature Precipitation Wind Pressure Humidity
    00:00 +18°C° 0 mm 1 mps 743 mmHg 80%
    01:00 +18°C° 0 mm 1 mps 743 mmHg 81%
    02:00 +16°C° 0 mm 1 mps 743 mmHg 83%
    03:00 +16°C° 0 mm 1 mps 743 mmHg 84%
    04:00 +18°C° 0 mm 1 mps 744 mmHg 83%
    05:00 +18°C° 0 mm 1 mps 744 mmHg 82%
    06:00 +19°C° 0 mm 1 mps 744 mmHg 81%
    07:00 +21°C° 0 mm 1 mps 744 mmHg 76%
    08:00 +22°C° 0 mm 1 mps 744 mmHg 71%
    09:00 +24°C° 0 mm 1 mps 744 mmHg 66%
    10:00 +25°C° 0 mm 1 mps 744 mmHg 60%
    11:00 +26°C° 0 mm 1 mps 744 mmHg 55%
    12:00 +27°C° 0 mm 1 mps 744 mmHg 50%
    13:00 +27°C° 0 mm 1 mps 744 mmHg 48%
    14:00 +27°C° 0 mm 1 mps 744 mmHg 47%
    15:00 +26°C° 0 mm 0 mps 744 mmHg 45%
    16:00 +27°C° 0 mm 1 mps 744 mmHg 50%
    17:00 +27°C° 0 mm 1 mps 744 mmHg 55%
    18:00 +27°C° 0 mm 1 mps 744 mmHg 60%
    19:00 +25°C° 0 mm 1 mps 744 mmHg 63%
    20:00 +23°C° 0 mm 1 mps 744 mmHg 66%
    21:00 +21°C° 0 mm 1 mps 744 mmHg 68%
    22:00 +20°C° 0 mm 1 mps 744 mmHg 69%
    23:00 +20°C° 0 mm 1 mps 744 mmHg 69%

    21 June, Friday

    Time Temperature Precipitation Wind Pressure Humidity
    00:00 +19°C° 0 mm 1 mps 744 mmHg 69%
    01:00 +19°C° 0 mm 1 mps 744 mmHg 70%
    02:00 +18°C° 0 mm 1 mps 744 mmHg 72%
    03:00 +18°C° 0 mm 1 mps 745 mmHg 74%
    04:00 +19°C° 0 mm 1 mps 745 mmHg 75%
    05:00 +19°C° 0 mm 1 mps 745 mmHg 76%
    06:00 +20°C° 0 mm 1 mps 745 mmHg 78%
    07:00 +21°C° 0 mm 1 mps 745 mmHg 74%
    08:00 +23°C° 0 mm 1 mps 745 mmHg 70%
    09:00 +24°C° 0 mm 1 mps 745 mmHg 66%
    10:00 +25°C° 0 mm 1 mps 745 mmHg 61%
    11:00 +26°C° 0 mm 2 mps 745 mmHg 57%
    12:00 +27°C° 0 mm 2 mps 746 mmHg 53%
    13:00 +27°C° 0 mm 2 mps 745 mmHg 52%
    14:00 +27°C° 0 mm 2 mps 745 mmHg 52%
    15:00 +28°C° 0 mm 2 mps 745 mmHg 52%
    16:00 +27°C° 0 mm 2 mps 745 mmHg 58%
    17:00 +27°C° 0 mm 2 mps 744 mmHg 63%
    18:00 +26°C° 0 mm 2 mps 744 mmHg 68%
    19:00 +25°C° 0 mm 2 mps 744 mmHg 71%
    20:00 +23°C° 0 mm 2 mps 744 mmHg 75%
    21:00 +20°C° 0 mm 2 mps 744 mmHg 78%
    22:00 +20°C° 0 mm 2 mps 744 mmHg 78%
    23:00 +19°C° 0 mm 2 mps 744 mmHg 78%

    22 June, Saturday

    Time Temperature Precipitation Wind Pressure Humidity
    00:00 +19°C° 0 mm 2 mps 744 mmHg 77%
    01:00 +18°C° 0 mm 2 mps 744 mmHg 78%
    02:00 +18°C° 0 mm 2 mps 744 mmHg 78%
    03:00 +18°C° 0 mm 2 mps 744 mmHg 78%
    04:00 +18°C° 0 mm 2 mps 745 mmHg 79%
    05:00 +19°C° 0 mm 2 mps 745 mmHg 80%
    06:00 +19°C° 0 mm 2 mps 745 mmHg 81%
    07:00 +21°C° 0 mm 2 mps 745 mmHg 78%
    08:00 +22°C° 0 mm 3 mps 745 mmHg 74%
    09:00 +25°C° 0 mm 3 mps 745 mmHg 71%
    10:00 +26°C° 0.1 mm 3 mps 745 mmHg 67%
    11:00 +27°C° 0.1 mm 3 mps 745 mmHg 64%
    12:00 +28°C° 0.1 mm 4 mps 745 mmHg 61%
    13:00 +28°C° 0.1 mm 4 mps 744 mmHg 60%
    14:00 +28°C° 0.1 mm 4 mps 744 mmHg 60%
    15:00 +28°C° 0.1 mm 4 mps 744 mmHg 59%
    16:00 +28°C° 0 mm 4 mps 744 mmHg 63%
    17:00 +28°C° 0 mm 3 mps 744 mmHg 67%
    18:00 +27°C° 0 mm 3 mps 743 mmHg 70%
    19:00 +26°C° 0 mm 3 mps 743 mmHg 74%
    20:00 +24°C° 0 mm 3 mps 743 mmHg 78%
    21:00 +22°C° 0 mm 3 mps 743 mmHg 82%
    22:00 +21°C° 0 mm 3 mps 744 mmHg 83%
    23:00 +20°C° 0 mm 3 mps 744 mmHg 83%

    23 June, Sunday

    Time Temperature Precipitation Wind Pressure Humidity
    00:00 +20°C° 0 mm 3 mps 744 mmHg 84%
    01:00 +20°C° 0 mm 3 mps 744 mmHg 86%
    02:00 +19°C° 0 mm 3 mps 744 mmHg 88%
    03:00 +19°C° 0 mm 3 mps 744 mmHg 90%
    04:00 +19°C° 0 mm 3 mps 744 mmHg 89%
    05:00 +20°C° 0 mm 2 mps 744 mmHg 88%
    06:00 +20°C° 0 mm 2 mps 744 mmHg 87%
    07:00 +23°C° 0 mm 2 mps 744 mmHg 82%
    08:00 +24°C° 0 mm 3 mps 744 mmHg 77%
    09:00 +26°C° 0 mm 3 mps 744 mmHg 72%
    10:00 +27°C° 0 mm 3 mps 744 mmHg 67%
    11:00 +28°C° 0 mm 3 mps 744 mmHg 62%
    12:00 +29°C° 0 mm 3 mps 744 mmHg 58%
    13:00 +29°C° 0 mm 3 mps 744 mmHg 57%
    14:00 +29°C° 0 mm 4 mps 744 mmHg 57%
    15:00 +29°C° 0 mm 4 mps 744 mmHg 57%
    16:00 +29°C° 0 mm 3 mps 744 mmHg 60%
    17:00 +29°C° 0 mm 3 mps 743 mmHg 64%
    18:00 +28°C° 0 mm 2 mps 743 mmHg 67%
    19:00 +27°C° 0 mm 2 mps 743 mmHg 71%
    20:00 +25°C° 0 mm 2 mps 743 mmHg 75%
    21:00 +23°C° 0 mm 2 mps 743 mmHg 78%
    22:00 +23°C° 0 mm 2 mps 743 mmHg 78%
    23:00 +21°C° 0 mm 2 mps 743 mmHg 78%
    Show more